CRF YMEN-YOSB

Flight info

Callsign CRF
Flight time 2h 21m
Altitude 43000
Route ML H50 MNG Q76 OPAXA H530 IVRAD Q57 DODRO
Aircraft C750/M-SBDE3FGHRWXY/S

Departure

Time 2026-04-13 01:23
Airport Melbourne Essendon Airport (YMEN)

Arrival

Time 2026-04-13 03:44
Airport Osborne Mine Airport (YOSB)
Time Latitude Longitude Altitude Speed Heading
2026-04-13 01:06 -37.71954 144.89400 267 ft 0 kts 187°
2026-04-13 01:17 -37.71967 144.89398 267 ft 4 kts 187°
2026-04-13 01:17 -37.72007 144.89390 267 ft 8 kts 196°
2026-04-13 01:17 -37.72058 144.89352 267 ft 8 kts 209°
2026-04-13 01:17 -37.72104 144.89349 267 ft 6 kts 157°
2026-04-13 01:18 -37.72133 144.89388 267 ft 7 kts 112°
2026-04-13 01:18 -37.72136 144.89467 266 ft 10 kts 90°
2026-04-13 01:18 -37.72125 144.89565 267 ft 12 kts 65°
2026-04-13 01:18 -37.72090 144.89669 267 ft 13 kts 91°
2026-04-13 01:19 -37.72147 144.89755 266 ft 14 kts 147°
2026-04-13 01:19 -37.72195 144.89845 264 ft 13 kts 82°
2026-04-13 01:19 -37.72153 144.89924 265 ft 10 kts 17°
2026-04-13 01:19 -37.72094 144.89922 265 ft 8 kts 358°
2026-04-13 01:20 -37.72053 144.89963 265 ft 9 kts 79°
2026-04-13 01:20 -37.72051 144.90053 266 ft 10 kts 95°
2026-04-13 01:20 -37.72087 144.90075 265 ft 0 kts 174°
2026-04-13 01:22 -37.72087 144.90076 265 ft 1 kts 174°
2026-04-13 01:22 -37.72296 144.90089 261 ft 75 kts 178°
2026-04-13 01:22 -37.73100 144.90125 259 ft 146 kts 178°
2026-04-13 01:23 -37.74151 144.90165 668 ft 154 kts 185°
2026-04-13 01:23 -37.75225 144.90252 1243 ft 161 kts 181°
2026-04-13 01:23 -37.76385 144.90334 1754 ft 173 kts 183°
2026-04-13 01:23 -37.77616 144.90347 2399 ft 175 kts 186°
2026-04-13 01:24 -37.78804 144.90264 3177 ft 169 kts 190°
2026-04-13 01:24 -37.80019 144.90313 3586 ft 192 kts 172°
2026-04-13 01:24 -37.81376 144.91024 3697 ft 236 kts 147°
2026-04-13 01:24 -37.82328 144.92918 3958 ft 278 kts 107°
2026-04-13 01:25 -37.82122 144.95339 4926 ft 283 kts 68°
2026-04-13 01:25 -37.80863 144.97261 5652 ft 291 kts 33°
2026-04-13 01:25 -37.78968 144.98002 6467 ft 286 kts
2026-04-13 01:25 -37.77004 144.97888 7282 ft 288 kts 352°
2026-04-13 01:26 -37.74969 144.97797 8080 ft 297 kts 358°
2026-04-13 01:26 -37.72889 144.98162 8874 ft 307 kts 10°
2026-04-13 01:26 -37.70799 144.98839 9707 ft 312 kts 13°
2026-04-13 01:26 -37.68633 144.99505 10089 ft 332 kts 10°
2026-04-13 01:27 -37.66285 145.00051 10152 ft 356 kts
2026-04-13 01:27 -37.63759 145.00619 10233 ft 378 kts
2026-04-13 01:27 -37.61168 145.01297 10879 ft 379 kts 10°
2026-04-13 01:27 -37.58575 145.01989 11451 ft 384 kts
2026-04-13 01:28 -37.55937 145.02641 12048 ft 388 kts
2026-04-13 01:28 -37.53274 145.03289 12619 ft 392 kts
2026-04-13 01:28 -37.50580 145.03969 13221 ft 396 kts
2026-04-13 01:28 -37.47866 145.04664 13784 ft 400 kts
2026-04-13 01:29 -37.45091 145.05359 13953 ft 416 kts
2026-04-13 01:29 -37.42229 145.06069 14507 ft 412 kts
2026-04-13 01:29 -37.39518 145.06756 15768 ft 386 kts
2026-04-13 01:29 -37.36911 145.07412 16346 ft 391 kts
2026-04-13 01:30 -37.34222 145.08076 16886 ft 395 kts
2026-04-13 01:30 -37.31522 145.08749 17489 ft 398 kts
2026-04-13 01:30 -37.28790 145.09435 18073 ft 401 kts
2026-04-13 01:30 -37.26041 145.10124 18671 ft 404 kts
2026-04-13 01:31 -37.23238 145.10819 18848 ft 420 kts
2026-04-13 01:31 -37.20298 145.11548 18963 ft 435 kts
2026-04-13 01:31 -37.17324 145.12295 19562 ft 436 kts
2026-04-13 01:31 -37.14337 145.13042 20062 ft 440 kts
2026-04-13 01:32 -37.11325 145.13787 20561 ft 444 kts
2026-04-13 01:32 -37.08282 145.14541 21076 ft 447 kts
2026-04-13 01:32 -37.05219 145.15304 21582 ft 451 kts
2026-04-13 01:32 -37.02168 145.16062 22108 ft 454 kts
2026-04-13 01:33 -36.99052 145.16833 22618 ft 458 kts
2026-04-13 01:33 -36.95912 145.17610 23155 ft 462 kts
2026-04-13 01:33 -36.92741 145.18395 23664 ft 466 kts
2026-04-13 01:33 -36.89541 145.19132 24081 ft 468 kts
2026-04-13 01:34 -36.86295 145.19291 24525 ft 465 kts 354°
2026-04-13 01:34 -36.83060 145.19086 25008 ft 466 kts 353°
2026-04-13 01:34 -36.79808 145.18887 25456 ft 469 kts 353°
2026-04-13 01:34 -36.76535 145.18703 25916 ft 471 kts 353°
2026-04-13 01:35 -36.73291 145.18514 26370 ft 473 kts 353°
2026-04-13 01:35 -36.69996 145.18311 26827 ft 475 kts 352°
2026-04-13 01:35 -36.66681 145.18109 27283 ft 478 kts 352°
2026-04-13 01:35 -36.63353 145.17915 27743 ft 480 kts 352°
2026-04-13 01:36 -36.59999 145.17718 28196 ft 482 kts 352°
2026-04-13 01:36 -36.56631 145.17515 28487 ft 489 kts 352°
2026-04-13 01:36 -36.53187 145.17303 28484 ft 502 kts 352°
2026-04-13 01:36 -36.49640 145.17094 28496 ft 514 kts 352°
2026-04-13 01:37 -36.46075 145.16893 29242 ft 504 kts 352°
2026-04-13 01:37 -36.42592 145.16698 29823 ft 503 kts 352°
2026-04-13 01:37 -36.39077 145.16474 30210 ft 507 kts 352°
2026-04-13 01:37 -36.35549 145.16256 30645 ft 509 kts 352°
2026-04-13 01:38 -36.32047 145.16058 31005 ft 511 kts 352°
2026-04-13 01:38 -36.28437 145.15853 31392 ft 514 kts 352°
2026-04-13 01:38 -36.24902 145.15639 31779 ft 515 kts 351°
2026-04-13 01:38 -36.21358 145.15432 32615 ft 505 kts 351°
2026-04-13 01:39 -36.17841 145.15225 33060 ft 504 kts 351°
2026-04-13 01:39 -36.14420 145.15032 34267 ft 485 kts 350°
2026-04-13 01:39 -36.11022 145.14827 34426 ft 492 kts 350°
2026-04-13 01:39 -36.08706 145.14680 34644 ft 494 kts 350°
2026-04-13 01:40 -36.04163 145.14414 35152 ft 495 kts 350°
2026-04-13 01:40 -36.00705 145.14221 35490 ft 497 kts 350°
2026-04-13 01:40 -35.98441 145.14092 36093 ft 484 kts 349°
2026-04-13 01:40 -35.95147 145.13909 37140 ft 470 kts 349°
2026-04-13 01:41 -35.91846 145.13699 37116 ft 480 kts 348°
2026-04-13 01:41 -35.88488 145.13485 37398 ft 483 kts 349°
2026-04-13 01:41 -35.85127 145.13304 37826 ft 483 kts 349°
2026-04-13 01:41 -35.81823 145.13133 38851 ft 466 kts 348°
2026-04-13 01:42 -35.78572 145.12939 39048 ft 470 kts 348°
2026-04-13 01:42 -35.71914 145.12516 39076 ft 488 kts 348°
2026-04-13 01:43 -35.61719 145.11943 39825 ft 493 kts 348°
2026-04-13 01:43 -35.58315 145.11744 40495 ft 482 kts 349°
2026-04-13 01:43 -35.54969 145.11562 40817 ft 479 kts 348°
2026-04-13 01:44 -35.51688 145.11374 41500 ft 468 kts 349°
2026-04-13 01:44 -35.48432 145.11177 41779 ft 468 kts 348°
2026-04-13 01:44 -35.45180 145.10981 42087 ft 468 kts 349°
2026-04-13 01:44 -35.41928 145.10799 42415 ft 467 kts 349°
2026-04-13 01:45 -35.38682 145.10617 42718 ft 467 kts 349°
2026-04-13 01:45 -35.35439 145.10427 43026 ft 466 kts 349°
2026-04-13 01:45 -35.32197 145.10237 43271 ft 468 kts 349°
2026-04-13 01:46 -35.25598 145.09854 43246 ft 481 kts 349°
2026-04-13 01:46 -35.18831 145.09468 43261 ft 493 kts 349°
2026-04-13 01:47 -35.11947 145.09073 43259 ft 503 kts 350°
2026-04-13 01:47 -35.04847 145.08668 43257 ft 512 kts 350°
2026-04-13 01:48 -34.97729 145.08261 43261 ft 518 kts 350°
2026-04-13 01:48 -34.90459 145.08232 43252 ft 529 kts 357°
2026-04-13 01:49 -34.83084 145.08913 43256 ft 533 kts 357°
2026-04-13 01:49 -34.75667 145.09501 43258 ft 535 kts 357°
2026-04-13 01:50 -34.68220 145.10152 43256 ft 537 kts 357°
2026-04-13 01:50 -34.60755 145.10766 43253 ft 538 kts 357°
2026-04-13 01:51 -34.53330 145.11397 43249 ft 538 kts 357°
2026-04-13 01:51 -34.45867 145.12018 43243 ft 537 kts 357°
2026-04-13 01:52 -34.38416 145.12643 43246 ft 537 kts 357°
2026-04-13 01:52 -34.31031 145.13262 43246 ft 527 kts 356°
2026-04-13 01:53 -34.23771 145.13864 43243 ft 519 kts 356°
2026-04-13 01:53 -34.16602 145.14461 43240 ft 513 kts 356°
2026-04-13 01:54 -34.09556 145.15046 43241 ft 508 kts 356°
2026-04-13 01:54 -34.02521 145.15629 43247 ft 505 kts 356°
2026-04-13 01:55 -33.95531 145.16207 43250 ft 502 kts 356°
2026-04-13 01:55 -33.88562 145.16781 43249 ft 502 kts 356°
2026-04-13 01:56 -33.81579 145.17359 43253 ft 503 kts 356°
2026-04-13 01:56 -33.74586 145.17934 43247 ft 502 kts 356°
2026-04-13 01:57 -33.67616 145.18508 43251 ft 502 kts 356°
2026-04-13 01:57 -33.60687 145.19077 43255 ft 501 kts 356°
2026-04-13 01:58 -33.53721 145.19648 43254 ft 501 kts 356°
2026-04-13 01:58 -33.46764 145.20217 43250 ft 500 kts 356°
2026-04-13 01:59 -33.39813 145.20785 43252 ft 500 kts 356°
2026-04-13 01:59 -33.32867 145.21351 43249 ft 500 kts 356°
2026-04-13 02:00 -33.25965 145.21913 43250 ft 499 kts 356°
2026-04-13 02:00 -33.19029 145.22477 43251 ft 499 kts 356°
2026-04-13 02:01 -33.12088 145.23041 43254 ft 499 kts 356°
2026-04-13 02:01 -33.05163 145.23602 43257 ft 498 kts 356°
2026-04-13 02:02 -32.98293 145.24158 43251 ft 498 kts 356°
2026-04-13 02:02 -32.91366 145.24718 43254 ft 498 kts 356°
2026-04-13 02:03 -32.84434 145.25277 43251 ft 497 kts 356°
2026-04-13 02:03 -32.77565 145.25830 43245 ft 497 kts 356°
2026-04-13 02:04 -32.70662 145.26385 43250 ft 497 kts 356°
2026-04-13 02:04 -32.63753 145.26940 43245 ft 497 kts 356°
2026-04-13 02:05 -32.56840 145.27494 43241 ft 497 kts 356°
2026-04-13 02:05 -32.49982 145.28043 43243 ft 496 kts 356°
2026-04-13 02:06 -32.43094 145.28594 43243 ft 496 kts 356°
2026-04-13 02:06 -32.36199 145.29144 43236 ft 496 kts 356°
2026-04-13 02:07 -32.29319 145.29692 43245 ft 495 kts 356°
2026-04-13 02:07 -32.22434 145.30240 43245 ft 495 kts 356°
2026-04-13 02:08 -32.15556 145.30786 43241 ft 495 kts 356°
2026-04-13 02:08 -32.08731 145.31327 43240 ft 494 kts 356°
2026-04-13 02:09 -32.01865 145.31840 43231 ft 492 kts 354°
2026-04-13 02:09 -31.95023 145.32006 43238 ft 491 kts 353°
2026-04-13 02:10 -31.88189 145.32198 43232 ft 491 kts 353°
2026-04-13 02:10 -31.81356 145.32376 43232 ft 491 kts 353°
2026-04-13 02:11 -31.74573 145.32558 43235 ft 490 kts 353°
2026-04-13 02:11 -31.67744 145.32740 43239 ft 490 kts 353°
2026-04-13 02:12 -31.60929 145.32920 43233 ft 490 kts 353°
2026-04-13 02:12 -31.54115 145.33101 43230 ft 489 kts 353°
2026-04-13 02:13 -31.47305 145.33281 43234 ft 489 kts 353°
2026-04-13 02:13 -31.40499 145.33461 43237 ft 489 kts 353°
2026-04-13 02:14 -31.33740 145.33639 43233 ft 488 kts 353°
2026-04-13 02:14 -31.26951 145.33819 43234 ft 488 kts 352°
2026-04-13 02:15 -31.20153 145.33997 43231 ft 488 kts 352°
2026-04-13 02:15 -31.13367 145.34176 43229 ft 487 kts 352°
2026-04-13 02:16 -31.06592 145.34353 43224 ft 487 kts 352°
2026-04-13 02:16 -30.99818 145.34531 43225 ft 487 kts 352°
2026-04-13 02:17 -30.93047 145.34708 43225 ft 486 kts 352°
2026-04-13 02:17 -30.86281 145.34885 43227 ft 486 kts 352°
2026-04-13 02:18 -30.79520 145.35061 43221 ft 486 kts 352°
2026-04-13 02:18 -30.72765 145.35237 43217 ft 485 kts 352°
2026-04-13 02:19 -30.66019 145.35413 43217 ft 485 kts 352°
2026-04-13 02:19 -30.59271 145.35588 43220 ft 485 kts 351°
2026-04-13 02:20 -30.52533 145.35759 43223 ft 484 kts 351°
2026-04-13 02:20 -30.45844 145.35854 43216 ft 477 kts 346°
2026-04-13 02:20 -30.42605 145.35347 43222 ft 464 kts 337°
2026-04-13 02:21 -30.39565 145.34261 43226 ft 451 kts 328°
2026-04-13 02:21 -30.36806 145.32644 43245 ft 439 kts 319°
2026-04-13 02:21 -30.34337 145.30619 43249 ft 432 kts 314°
2026-04-13 02:22 -30.29606 145.26317 43234 ft 434 kts 315°
2026-04-13 02:22 -30.24396 145.22584 43221 ft 446 kts 324°
2026-04-13 02:23 -30.18805 145.19480 43226 ft 445 kts 323°
2026-04-13 02:23 -30.13441 145.15973 43228 ft 444 kts 322°
2026-04-13 02:24 -30.07932 145.12642 43224 ft 446 kts 323°
2026-04-13 02:24 -30.03403 145.09814 43219 ft 445 kts 322°
2026-04-13 02:25 -29.97051 145.05882 43223 ft 446 kts 323°
2026-04-13 02:25 -29.92507 145.03078 43215 ft 445 kts 322°
2026-04-13 02:26 -29.86126 144.99137 43216 ft 445 kts 323°
2026-04-13 02:26 -29.81587 144.96344 43219 ft 445 kts 323°
2026-04-13 02:27 -29.76122 144.92974 43220 ft 445 kts 323°
2026-04-13 02:27 -29.70661 144.89620 43222 ft 444 kts 323°
2026-04-13 02:28 -29.65205 144.86267 43219 ft 444 kts 323°
2026-04-13 02:28 -29.59748 144.82921 43219 ft 444 kts 323°
2026-04-13 02:29 -29.54294 144.79579 43218 ft 444 kts 323°
2026-04-13 02:29 -29.48874 144.76264 43221 ft 444 kts 323°
2026-04-13 02:30 -29.43423 144.72933 43222 ft 444 kts 323°
2026-04-13 02:30 -29.37967 144.69603 43217 ft 444 kts 323°
2026-04-13 02:31 -29.32510 144.66276 43210 ft 444 kts 323°
2026-04-13 02:31 -29.27058 144.62957 43222 ft 444 kts 323°
2026-04-13 02:32 -29.21601 144.59638 43211 ft 444 kts 323°
2026-04-13 02:32 -29.16149 144.56327 43213 ft 444 kts 323°
2026-04-13 02:33 -29.10690 144.53015 43218 ft 444 kts 324°
2026-04-13 02:33 -29.05229 144.49706 43214 ft 444 kts 324°
2026-04-13 02:34 -28.99811 144.46428 43216 ft 444 kts 324°
2026-04-13 02:34 -28.94347 144.43125 43218 ft 444 kts 324°
2026-04-13 02:35 -28.88879 144.39824 43217 ft 444 kts 324°
2026-04-13 02:35 -28.83410 144.36526 43217 ft 444 kts 324°
2026-04-13 02:36 -28.77937 144.33230 43221 ft 444 kts 324°
2026-04-13 02:36 -28.72506 144.29963 43216 ft 444 kts 324°
2026-04-13 02:37 -28.67034 144.26675 43211 ft 445 kts 324°
2026-04-13 02:37 -28.61559 144.23389 43213 ft 445 kts 324°
2026-04-13 02:38 -28.56083 144.20107 43215 ft 445 kts 324°
2026-04-13 02:38 -28.50606 144.16828 43211 ft 445 kts 324°
2026-04-13 02:39 -28.45123 144.13549 43210 ft 445 kts 324°
2026-04-13 02:39 -28.39636 144.10272 43212 ft 445 kts 325°
2026-04-13 02:40 -28.34152 144.07000 43209 ft 446 kts 325°
2026-04-13 02:40 -28.28657 144.03726 43207 ft 446 kts 325°
2026-04-13 02:41 -28.23166 144.00458 43213 ft 446 kts 325°
2026-04-13 02:41 -28.17675 143.97193 43205 ft 446 kts 325°
2026-04-13 02:42 -28.12209 143.93948 43212 ft 446 kts 325°
2026-04-13 02:42 -28.06707 143.90684 43209 ft 446 kts 325°
2026-04-13 02:43 -28.01200 143.87422 43203 ft 447 kts 325°
2026-04-13 02:43 -27.95691 143.84162 43201 ft 447 kts 325°
2026-04-13 02:44 -27.90177 143.80902 43204 ft 447 kts 326°
2026-04-13 02:44 -27.84670 143.77652 43200 ft 447 kts 326°
2026-04-13 02:45 -27.79198 143.74425 43219 ft 446 kts 326°
2026-04-13 02:45 -27.73683 143.71176 43200 ft 447 kts 326°
2026-04-13 02:46 -27.68163 143.67929 43208 ft 447 kts 326°
2026-04-13 02:46 -27.62644 143.64686 43205 ft 447 kts 326°
2026-04-13 02:47 -27.54347 143.59817 43211 ft 447 kts 326°
2026-04-13 02:47 -27.48847 143.56594 43205 ft 448 kts 326°
2026-04-13 02:48 -27.43315 143.53356 43198 ft 448 kts 326°
2026-04-13 02:48 -27.37772 143.50116 43195 ft 449 kts 326°
2026-04-13 02:49 -27.32229 143.46879 43200 ft 449 kts 326°
2026-04-13 02:49 -27.26682 143.43643 43198 ft 449 kts 326°
2026-04-13 02:50 -27.21162 143.40427 43192 ft 449 kts 326°
2026-04-13 02:50 -27.15619 143.37201 43193 ft 449 kts 326°
2026-04-13 02:51 -27.10068 143.33974 43191 ft 449 kts 327°
2026-04-13 02:51 -27.04516 143.30750 43190 ft 449 kts 327°
2026-04-13 02:52 -26.98966 143.27530 43190 ft 449 kts 327°
2026-04-13 02:52 -26.93440 143.24328 43187 ft 449 kts 327°
2026-04-13 02:53 -26.87883 143.21112 43183 ft 450 kts 327°
2026-04-13 02:53 -26.82326 143.17900 43186 ft 449 kts 327°
2026-04-13 02:54 -26.76768 143.14690 43185 ft 449 kts 327°
2026-04-13 02:54 -26.71241 143.11502 43180 ft 449 kts 327°
2026-04-13 02:55 -26.65682 143.08299 43180 ft 449 kts 327°
2026-04-13 02:55 -26.60118 143.05097 43178 ft 449 kts 327°
2026-04-13 02:56 -26.54549 143.01895 43178 ft 450 kts 327°
2026-04-13 02:56 -26.48977 142.98695 43181 ft 450 kts 327°
2026-04-13 02:57 -26.43412 142.95503 43186 ft 450 kts 327°
2026-04-13 02:57 -26.37875 142.92330 43178 ft 450 kts 327°
2026-04-13 02:58 -26.32308 142.89143 43177 ft 450 kts 327°
2026-04-13 02:58 -26.26731 142.85954 43170 ft 450 kts 327°
2026-04-13 02:59 -26.21137 142.82759 43173 ft 450 kts 328°
2026-04-13 02:59 -26.15601 142.79601 43168 ft 450 kts 328°
2026-04-13 03:00 -26.10017 142.76418 43172 ft 450 kts 328°
2026-04-13 03:00 -26.04471 142.73261 43168 ft 450 kts 328°
2026-04-13 03:01 -25.98899 142.70092 43168 ft 450 kts 328°
2026-04-13 03:01 -25.93321 142.66923 43165 ft 450 kts 328°
2026-04-13 03:02 -25.87739 142.63755 43169 ft 450 kts 328°
2026-04-13 03:02 -25.82156 142.60590 43169 ft 450 kts 328°
2026-04-13 03:03 -25.76611 142.57451 43163 ft 449 kts 328°
2026-04-13 03:03 -25.71043 142.54300 43164 ft 449 kts 328°
2026-04-13 03:04 -25.65464 142.51148 43160 ft 450 kts 328°
2026-04-13 03:04 -25.59880 142.47996 43157 ft 450 kts 328°
2026-04-13 03:05 -25.54331 142.44867 43155 ft 450 kts 328°
2026-04-13 03:05 -25.48741 142.41718 43163 ft 450 kts 328°
2026-04-13 03:06 -25.43151 142.38573 43165 ft 450 kts 328°
2026-04-13 03:06 -25.37568 142.35434 43160 ft 450 kts 328°
2026-04-13 03:07 -25.31976 142.32294 43154 ft 451 kts 328°
2026-04-13 03:07 -25.26405 142.29168 43151 ft 451 kts 328°
2026-04-13 03:08 -25.20811 142.26034 43153 ft 451 kts 328°
2026-04-13 03:08 -25.15205 142.22896 43148 ft 451 kts 328°
2026-04-13 03:09 -25.09602 142.19762 43146 ft 451 kts 328°
2026-04-13 03:09 -25.04003 142.16634 43141 ft 451 kts 328°
2026-04-13 03:10 -24.98391 142.13503 43146 ft 451 kts 328°
2026-04-13 03:10 -24.92818 142.10396 43145 ft 451 kts 329°
2026-04-13 03:11 -24.87216 142.07276 43145 ft 451 kts 329°
2026-04-13 03:11 -24.81606 142.04155 43140 ft 452 kts 329°
2026-04-13 03:12 -24.75995 142.01036 43133 ft 452 kts 329°
2026-04-13 03:12 -24.70384 141.97921 43135 ft 452 kts 329°
2026-04-13 03:13 -24.64774 141.94809 43132 ft 451 kts 329°
2026-04-13 03:13 -24.59166 141.91702 43128 ft 452 kts 329°
2026-04-13 03:14 -24.54500 141.89119 43131 ft 452 kts 329°
2026-04-13 03:14 -24.48881 141.86011 43132 ft 452 kts 329°
2026-04-13 03:15 -24.43265 141.82908 43130 ft 452 kts 329°
2026-04-13 03:15 -24.37640 141.79804 43125 ft 452 kts 329°
2026-04-13 03:16 -24.32016 141.76703 43121 ft 452 kts 329°
2026-04-13 03:16 -24.26391 141.73604 43127 ft 453 kts 329°
2026-04-13 03:17 -24.20793 141.70523 43120 ft 453 kts 329°
2026-04-13 03:17 -24.15155 141.67424 43116 ft 453 kts 329°
2026-04-13 03:18 -24.09482 141.64308 43120 ft 453 kts 329°
2026-04-13 03:18 -24.03878 141.61233 43113 ft 453 kts 329°
2026-04-13 03:19 -23.98238 141.58142 43116 ft 454 kts 330°
2026-04-13 03:19 -23.92597 141.55053 43110 ft 454 kts 330°
2026-04-13 03:20 -23.86947 141.51962 43109 ft 454 kts 330°
2026-04-13 03:20 -23.81304 141.48878 43115 ft 454 kts 330°
2026-04-13 03:21 -23.75658 141.45795 43112 ft 454 kts 330°
2026-04-13 03:21 -23.70000 141.42710 43112 ft 454 kts 330°
2026-04-13 03:22 -23.64425 141.39484 43085 ft 453 kts 325°
2026-04-13 03:22 -23.61873 141.37675 43043 ft 420 kts 323°
2026-04-13 03:22 -23.59496 141.36013 42850 ft 394 kts 325°
2026-04-13 03:23 -23.57187 141.34556 42531 ft 374 kts 327°
2026-04-13 03:23 -23.54972 141.33176 42157 ft 359 kts 326°
2026-04-13 03:23 -23.52871 141.31793 41768 ft 347 kts 325°
2026-04-13 03:23 -23.50840 141.30451 41374 ft 337 kts 326°
2026-04-13 03:24 -23.48696 141.29347 40109 ft 351 kts 334°
2026-04-13 03:24 -23.46340 141.28336 38288 ft 376 kts 334°
2026-04-13 03:24 -23.43842 141.27256 36108 ft 396 kts 334°
2026-04-13 03:24 -23.41230 141.26122 33963 ft 412 kts 334°
2026-04-13 03:25 -23.38544 141.24965 31724 ft 417 kts 334°
2026-04-13 03:25 -23.35815 141.23788 28972 ft 431 kts 334°
2026-04-13 03:25 -23.33050 141.22589 26876 ft 430 kts 334°
2026-04-13 03:25 -23.30308 141.21412 25058 ft 419 kts 335°
2026-04-13 03:26 -23.27617 141.20254 23204 ft 414 kts 335°
2026-04-13 03:26 -23.25010 141.19127 22476 ft 383 kts 335°
2026-04-13 03:26 -23.22662 141.18121 22430 ft 345 kts 335°
2026-04-13 03:26 -23.20513 141.17195 22263 ft 322 kts 335°
2026-04-13 03:27 -23.18462 141.16305 21853 ft 313 kts 335°
2026-04-13 03:27 -23.16408 141.15413 21442 ft 332 kts 335°
2026-04-13 03:27 -23.14161 141.14440 21014 ft 363 kts 336°
2026-04-13 03:27 -23.11714 141.13390 20541 ft 392 kts 336°
2026-04-13 03:28 -23.09092 141.12267 20009 ft 419 kts 336°
2026-04-13 03:28 -23.06303 141.11067 19433 ft 443 kts 336°
2026-04-13 03:28 -23.03366 141.09803 18824 ft 464 kts 336°
2026-04-13 03:28 -23.00415 141.08540 18225 ft 440 kts 336°
2026-04-13 03:29 -22.97552 141.07314 17587 ft 444 kts 336°
2026-04-13 03:29 -22.94755 141.06111 17001 ft 436 kts 336°
2026-04-13 03:29 -22.91936 141.04897 16441 ft 418 kts 337°
2026-04-13 03:29 -22.89355 141.03795 15904 ft 383 kts 337°
2026-04-13 03:30 -22.86957 141.02770 15416 ft 359 kts 337°
2026-04-13 03:30 -22.84682 141.01792 14947 ft 344 kts 337°
2026-04-13 03:30 -22.82430 141.00823 14478 ft 362 kts 337°
2026-04-13 03:30 -22.79997 140.99779 14002 ft 391 kts 338°
2026-04-13 03:31 -22.77382 140.98663 13445 ft 415 kts 338°
2026-04-13 03:31 -22.74748 140.97538 12912 ft 396 kts 339°
2026-04-13 03:31 -22.72233 140.96461 12393 ft 382 kts 339°
2026-04-13 03:31 -22.69799 140.95419 11898 ft 372 kts 339°
2026-04-13 03:32 -22.67409 140.94398 11394 ft 365 kts 340°
2026-04-13 03:32 -22.65186 140.93446 10944 ft 333 kts 340°
2026-04-13 03:32 -22.63097 140.92552 10513 ft 314 kts 341°
2026-04-13 03:32 -22.61103 140.91703 10105 ft 302 kts 341°
2026-04-13 03:33 -22.59121 140.90861 9598 ft 322 kts 341°
2026-04-13 03:33 -22.56944 140.89939 9139 ft 339 kts 340°
2026-04-13 03:33 -22.54896 140.89055 8718 ft 296 kts 340°
2026-04-13 03:33 -22.53011 140.88247 8326 ft 288 kts 341°
2026-04-13 03:34 -22.51064 140.87427 7951 ft 316 kts 341°
2026-04-13 03:34 -22.48968 140.86539 7547 ft 320 kts 340°
2026-04-13 03:34 -22.46972 140.85678 7133 ft 300 kts 340°
2026-04-13 03:34 -22.45066 140.84862 6719 ft 289 kts 341°
2026-04-13 03:35 -22.43288 140.84107 6336 ft 269 kts 341°
2026-04-13 03:35 -22.41455 140.83335 5946 ft 288 kts 341°
2026-04-13 03:35 -22.39585 140.82539 5575 ft 290 kts 340°
2026-04-13 03:35 -22.37745 140.81752 5210 ft 288 kts 340°
2026-04-13 03:36 -22.35886 140.80961 4831 ft 286 kts 340°
2026-04-13 03:36 -22.34047 140.80180 4445 ft 281 kts 340°
2026-04-13 03:36 -22.32247 140.79415 4071 ft 274 kts 340°
2026-04-13 03:36 -22.30494 140.78669 3710 ft 267 kts 340°
2026-04-13 03:37 -22.28800 140.77950 3363 ft 247 kts 340°
2026-04-13 03:37 -22.27229 140.77283 3061 ft 248 kts 341°
2026-04-13 03:37 -22.25638 140.76547 2666 ft 249 kts 332°
2026-04-13 03:37 -22.24415 140.75282 2567 ft 236 kts 310°
2026-04-13 03:38 -22.23348 140.73955 2690 ft 235 kts 311°
2026-04-13 03:38 -22.22248 140.72637 2735 ft 240 kts 312°
2026-04-13 03:38 -22.21121 140.71295 2736 ft 242 kts 312°
2026-04-13 03:38 -22.19990 140.69933 2714 ft 241 kts 312°
2026-04-13 03:39 -22.18900 140.68617 2694 ft 230 kts 311°
2026-04-13 03:39 -22.17863 140.67370 2713 ft 216 kts 311°
2026-04-13 03:39 -22.16868 140.66172 2674 ft 218 kts 312°
2026-04-13 03:39 -22.15813 140.64904 2694 ft 230 kts 312°
2026-04-13 03:40 -22.14883 140.63786 2540 ft 211 kts 312°
2026-04-13 03:40 -22.13944 140.62657 2357 ft 196 kts 311°
2026-04-13 03:40 -22.13045 140.61577 2135 ft 192 kts 311°
2026-04-13 03:40 -22.12111 140.60567 1871 ft 193 kts 328°
2026-04-13 03:41 -22.10850 140.60185 1629 ft 179 kts 356°
2026-04-13 03:41 -22.09595 140.60094 1790 ft 183 kts 358°
2026-04-13 03:41 -22.08412 140.59638 1678 ft 187 kts 326°
2026-04-13 03:41 -22.07464 140.58632 1723 ft 192 kts 314°
2026-04-13 03:42 -22.06518 140.57586 1739 ft 197 kts 314°
2026-04-13 03:42 -22.05576 140.56559 1669 ft 191 kts 314°
2026-04-13 03:42 -22.04631 140.55553 1581 ft 190 kts 314°
2026-04-13 03:43 -22.03984 140.53118 1556 ft 175 kts 236°
2026-04-13 03:43 -22.04896 140.52460 1465 ft 148 kts 183°
2026-04-13 03:43 -22.05775 140.52864 1370 ft 134 kts 133°
2026-04-13 03:43 -22.06381 140.53581 1198 ft 128 kts 134°
2026-04-13 03:44 -22.06998 140.54319 1118 ft 134 kts 132°
2026-04-13 03:44 -22.07609 140.55049 958 ft 127 kts 132°
2026-04-13 03:44 -22.08137 140.55678 924 ft 92 kts 131°
2026-04-13 03:44 -22.08408 140.56036 915 ft 35 kts 118°
2026-04-13 03:45 -22.08517 140.56109 913 ft 13 kts 206°
2026-04-13 03:45 -22.08577 140.56079 914 ft 7 kts 175°
2026-04-13 03:45 -22.08582 140.56088 914 ft 1 kts 49°
2026-04-13 03:45 -22.08578 140.56087 914 ft 0 kts